[[{"header":{"parameterUnit":"m.s-1","parameterCategory":1,"la1":30.2991,"la2":30.254,"lo1":-89.0895,"lo2":-89.0444,"dy":0.0017,"dx":0.0017,"nx":28,"ny":28,"refTime":"2023-08-15T03:00:00:Z","depth":0,"parameterNumber":2,"parameterNumberName":"U-component_of_WINDS"},"data":[0,0,0,0,0,0,0,0,0,0,0,0,0,0,0,0,0,0,0,0,0,0,0,0,0,0,0,0,0,0,0,0,0,0,0,0,0,0,0,0,0,0,0,0,0,0,0,0,0,0,0,0,0,0,0,0,0,0,5.6062,5.6064,0,5.6212,5.6213,5.6215,5.616,5.6157,5.6154,5.615,5.6303,5.631,5.6317,0,0,0,0,0,0,0,0,0,0,0,0,0,5.5727,5.5733,5.6062,5.6064,5.6066,5.6211,5.6214,5.6216,5.6161,5.6157,5.6153,5.6149,5.63,5.6309,5.6318,0,0,0,0,0,0,0,0,0,0,0,0,0,5.5874,5.5735,5.6062,5.6056,5.6057,5.6211,5.6214,5.6216,5.6162,5.6157,5.6152,5.6147,5.6298,5.6308,5.6319,5.6487,0,0,5.6352,5.6356,0,0,0,0,0,0,0,0,5.5866,5.5886,5.6055,5.6057,5.6058,5.6162,5.6151,5.6307,5.6163,5.6122,5.615,5.6144,5.626,5.6274,5.6313,5.6494,5.6501,5.6353,5.6359,5.6364,5.6367,0,0,0,0,0,0,0,5.5856,5.588,5.6121,5.6057,5.6059,5.6045,5.6061,5.618,5.6218,5.6125,5.6122,5.614,5.626,5.6302,5.6316,5.6503,5.6352,5.6362,5.6369,5.6373,5.6828,5.6833,0,0,0,0,0,0,5.5845,5.5872,5.6116,5.6126,5.5948,5.6056,5.6073,5.6134,5.6216,5.6224,5.6144,5.6137,5.6286,5.6303,5.6321,5.6522,5.6364,5.6374,5.638,5.6822,5.6829,5.6835,0,0,0,0,0,0,5.5838,5.5867,5.611,5.5998,5.6028,5.6067,5.6136,5.6139,5.6182,5.6231,5.6237,5.6181,5.6283,5.6306,5.6446,5.6526,5.6379,5.6389,5.6816,5.6824,5.6832,5.6926,0,0,0,0,0,0,5.5829,5.5865,5.593,5.6,5.6034,5.6233,5.6141,5.6146,5.6201,5.6193,5.6267,5.6274,5.6281,5.643,5.6456,5.6539,5.6397,5.6808,5.6819,5.6829,5.6916,5.6937,5.6954,0,0,0,0,0,5.5817,5.5951,5.5934,5.5963,5.6116,5.6238,5.6258,5.6263,5.6208,5.6273,5.6304,5.6272,5.6514,5.6445,5.6474,5.6561,5.6803,5.6816,5.6829,5.6907,5.6933,5.6954,0,0,0,0,0,0,5.5889,5.596,5.5942,5.6102,5.6165,5.6229,5.6311,5.629,5.6369,5.6358,5.6361,5.6378,5.6522,5.6556,5.6478,5.6727,5.665,5.6669,5.67,5.6724,5.6743,5.6731,5.6406,0,0,0,0,0,5.5924,5.6018,5.6074,5.621,5.6243,5.6272,5.6325,5.6324,5.6389,5.6415,5.6456,5.652,5.661,5.6669,5.6755,5.6921,5.6935,5.6995,5.7014,5.703,5.7046,5.7134,5.7161,5.6876,5.6876,5.6876,0,0,5.5997,5.6047,5.6106,5.6226,5.6274,5.6371,5.6294,5.64,5.6471,5.6431,5.6565,5.6598,5.6669,5.6822,5.6892,5.6854,5.7128,5.7046,5.7058,5.7066,5.715,5.7177,5.7201,5.6885,5.6883,5.6882,0,0,5.6178,5.6226,5.6344,5.6394,5.6468,5.6486,5.6514,5.6582,5.6602,5.6737,5.6708,5.6793,5.6948,5.7,5.7046,5.7246,5.7219,5.7274,5.7374,5.7461,5.7483,5.7503,5.7573,5.7598,5.729,5.7291,5.7291,0,5.6258,5.6403,5.6407,5.6515,5.6568,5.6536,5.6654,5.6703,5.6801,5.6838,5.6795,5.6989,5.7035,5.7199,5.7248,5.7287,5.7318,5.7265,5.748,5.75,5.7518,5.7585,5.7611,5.7297,5.7296,5.7295,5.7295,0,5.6498,5.6599,5.6685,5.678,5.6843,5.6956,5.6976,5.704,5.7033,5.7055,5.7192,5.7246,5.7341,5.7381,5.7375,5.7544,5.7518,5.7478,5.74,5.7551,5.7614,5.7639,5.7305,5.7303,5.7301,5.73,0,0,5.6729,5.6824,5.6856,5.6898,5.6977,5.7055,5.7166,5.7259,5.7313,5.7382,5.7474,5.7606,5.7569,5.7622,5.7622,5.7698,5.7851,5.7648,5.7649,5.7682,5.8038,5.8067,5.8096,5.7834,5.7839,5.7843,5.8031,0,5.6915,5.711,5.7116,5.7294,5.7386,5.7357,5.7453,5.7511,5.7535,5.7617,5.7643,5.7736,5.768,5.7712,5.7786,5.7816,5.7922,5.7803,5.7918,5.7922,5.79,5.8129,5.816,5.8336,5.8056,5.806,5.8063,0,5.7158,5.7234,5.7421,5.7486,5.7525,5.7611,5.7697,5.7775,5.7841,5.7852,5.7911,5.79,5.8012,5.7932,5.8086,5.8005,5.8053,5.8075,5.8082,5.8091,5.8001,5.8143,5.8392,5.8418,5.8102,5.8099,5.8096,0,5.7306,5.7455,5.7586,5.7623,5.7703,5.7764,5.7799,5.786,5.7915,5.799,5.8025,5.8112,5.816,5.8227,5.8239,5.818,5.8393,5.8314,5.8405,5.8404,5.845,5.8446,5.8708,5.8483,5.8483,5.8483,5.8482,0,5.7512,5.7628,5.7653,5.7734,5.7861,5.7867,5.7993,5.8024,5.8078,5.8163,5.8143,5.8223,5.8235,5.8318,5.8328,5.8453,5.8475,5.8487,5.8488,5.8488,5.8486,5.8518,5.8506,5.849,5.8488,5.8487,5.8485,0,5.7699,5.7721,5.7861,5.7924,5.7943,5.8034,5.8087,5.8164,5.8185,5.8293,5.8319,5.8353,5.8449,5.8468,5.8582,5.8589,5.8737,5.8727,5.8715,5.8713,5.8802,5.8793,5.9092,5.9131,5.8883,5.8885,5.8887,0,5.7828,5.7916,5.7989,5.8044,5.8083,5.8173,5.8229,5.8238,5.8297,5.8377,5.8444,5.8538,5.8614,5.8769,5.8803,5.889,5.8881,5.8979,5.8894,5.889,5.888,5.8874,5.8882,5.8995,5.8998,5.9,5.9002,0,5.8056,5.8062,5.8144,5.823,5.8297,5.8365,5.8429,5.8476,5.8493,5.8561,5.8659,5.8718,5.8834,5.8927,5.9013,5.9049,5.9029,5.9029,5.9054,5.9054,5.9043,5.9048,5.8758,5.9022,5.902,5.9018,5.9017,5.9016,5.8217,5.8293,5.8355,5.8447,5.8496,5.8556,5.863,5.8661,5.8743,5.8838,5.8839,5.8946,5.9007,5.9121,5.9163,5.9246,5.9215,5.9252,5.9261,5.9269,5.9277,5.9031,5.9262,5.9261,5.9261,5.926,5.926,0,5.8442,5.848,5.8564,5.8655,5.8726,5.8701,5.877,5.8832,5.8926,5.8986,5.906,5.9172,5.9263,5.9304,5.9393,5.9451,5.9444,5.9474,5.9469,5.9477,5.9301,5.9269,5.9478,5.9478,5.9478,5.9478,5.9478,5.9478,5.8567,5.8694,5.8707,5.8858,5.8895,5.9,5.9041,5.9096,5.9144,5.927,5.9344,5.9371,5.9423,5.9515,5.9596,5.9605,5.9638,5.9673,5.9678,5.9512,5.949,5.9469,5.9439,5.968,5.9681,5.9847,5.9849,5.985]},{"header":{"parameterUnit":"m.s-1","parameterCategory":1,"la1":30.2991,"la2":30.254,"lo1":-89.0895,"lo2":-89.0444,"dy":0.0017,"dx":0.0017,"nx":28,"ny":28,"refTime":"2023-08-15T03:00:00:Z","depth":0,"parameterNumber":3,"parameterNumberName":"V-component_of_WINDS"},"data":[0,0,0,0,0,0,0,0,0,0,0,0,0,0,0,0,0,0,0,0,0,0,0,0,0,0,0,0,0,0,0,0,0,0,0,0,0,0,0,0,0,0,0,0,0,0,0,0,0,0,0,0,0,0,0,0,0,0,0.3855,0.3855,0,0.392,0.3921,0.3921,0.3934,0.3933,0.3933,0.3932,0.4003,0.4006,0.4008,0,0,0,0,0,0,0,0,0,0,0,0,0,0.3744,0.3746,0.3855,0.3855,0.3856,0.392,0.3921,0.3922,0.3934,0.3933,0.3933,0.3932,0.4003,0.4005,0.4008,0,0,0,0,0,0,0,0,0,0,0,0,0,0.3799,0.3747,0.3855,0.387,0.3872,0.392,0.3921,0.3922,0.3934,0.3933,0.3932,0.3932,0.4002,0.4005,0.4009,0.4047,0,0,0.402,0.4021,0,0,0,0,0,0,0,0,0.3796,0.3803,0.3867,0.3869,0.3871,0.3918,0.3908,0.3964,0.3934,0.3911,0.3932,0.3931,0.3976,0.3982,0.3996,0.405,0.4053,0.402,0.4022,0.4024,0.4025,0,0,0,0,0,0,0,0.3792,0.3801,0.3881,0.3868,0.3871,0.3875,0.3882,0.3919,0.3947,0.3913,0.3914,0.3921,0.3977,0.3992,0.3997,0.4054,0.402,0.4023,0.4025,0.4027,0.4144,0.4145,0,0,0,0,0,0,0.3785,0.3797,0.3879,0.3883,0.3831,0.3877,0.3885,0.3904,0.3947,0.3952,0.3922,0.3921,0.3986,0.3993,0.4,0.4048,0.4024,0.4027,0.4029,0.4143,0.4144,0.4145,0,0,0,0,0,0,0.3783,0.3792,0.3876,0.384,0.3851,0.388,0.3901,0.3905,0.3921,0.3953,0.3959,0.3932,0.3986,0.3995,0.4035,0.4051,0.4029,0.4032,0.4142,0.4144,0.4145,0.4144,0,0,0,0,0,0,0.378,0.3791,0.3805,0.384,0.3853,0.3909,0.3902,0.3907,0.3926,0.3927,0.3964,0.397,0.3986,0.403,0.4039,0.4055,0.4035,0.4141,0.4143,0.4144,0.4143,0.4145,0.4147,0,0,0,0,0,0.3776,0.3803,0.3806,0.3816,0.3871,0.3909,0.3917,0.3934,0.3927,0.3942,0.3963,0.3969,0.4047,0.4034,0.4044,0.4062,0.414,0.4142,0.4144,0.4142,0.4144,0.4147,0,0,0,0,0,0,0.3771,0.3808,0.3812,0.3851,0.3877,0.3911,0.3931,0.3936,0.3965,0.3965,0.3986,0.3994,0.4033,0.4051,0.4036,0.4101,0.4093,0.4098,0.4088,0.4091,0.4093,0.4088,0.4038,0,0,0,0,0,0.3774,0.3801,0.3833,0.3865,0.3877,0.3902,0.3919,0.393,0.3958,0.3969,0.3993,0.4021,0.4052,0.4073,0.4103,0.4145,0.4154,0.4162,0.4165,0.4166,0.417,0.4194,0.4198,0.4153,0.4153,0.4153,0,0,0.3782,0.3806,0.3822,0.3865,0.3886,0.3914,0.3911,0.3941,0.3963,0.3974,0.4013,0.4032,0.4065,0.4106,0.4125,0.4122,0.4184,0.4169,0.417,0.4173,0.4197,0.4201,0.4205,0.4154,0.4154,0.4154,0,0,0.3811,0.3831,0.386,0.3881,0.3912,0.3928,0.3935,0.3968,0.3981,0.402,0.4029,0.4055,0.4108,0.4131,0.415,0.4187,0.4193,0.4196,0.4208,0.4231,0.4235,0.4238,0.4252,0.4256,0.42,0.42,0.42,0,0.3817,0.3859,0.3874,0.3904,0.3923,0.3933,0.3963,0.3983,0.4023,0.4037,0.4032,0.4098,0.4121,0.4168,0.4177,0.4191,0.4201,0.4192,0.4233,0.4236,0.424,0.4253,0.4258,0.42,0.42,0.42,0.42,0,0.3865,0.3894,0.3914,0.3951,0.3972,0.4002,0.4023,0.4043,0.4051,0.4068,0.4108,0.4135,0.4171,0.4183,0.4193,0.4232,0.4229,0.4228,0.4221,0.4244,0.4257,0.4262,0.42,0.42,0.42,0.42,0,0,0.3894,0.3938,0.3945,0.3962,0.3997,0.402,0.4051,0.4085,0.4101,0.4129,0.4156,0.42,0.4199,0.4221,0.4233,0.4253,0.4281,0.425,0.4251,0.4255,0.4326,0.4326,0.4332,0.4284,0.4285,0.4286,0.4323,0,0.3927,0.398,0.3995,0.404,0.4068,0.4077,0.4104,0.4129,0.4145,0.4172,0.4191,0.4222,0.4218,0.4231,0.4252,0.4273,0.4295,0.427,0.4311,0.4312,0.4303,0.4338,0.4339,0.4372,0.4328,0.4329,0.433,0,0.3973,0.3999,0.4047,0.4079,0.4091,0.4114,0.4146,0.4171,0.42,0.4211,0.4234,0.4244,0.4277,0.4267,0.4314,0.4297,0.4315,0.4327,0.4329,0.4334,0.4323,0.4345,0.4384,0.4389,0.4338,0.4337,0.4337,0,0.3989,0.4037,0.4072,0.4086,0.4124,0.414,0.4157,0.4184,0.4204,0.4232,0.4245,0.4278,0.4296,0.4321,0.434,0.4331,0.4386,0.4377,0.4396,0.4396,0.4408,0.4407,0.445,0.4418,0.4418,0.4418,0.4418,0,0.4025,0.4054,0.408,0.4101,0.4135,0.4151,0.4184,0.4201,0.4226,0.4252,0.4263,0.4287,0.431,0.4338,0.4353,0.439,0.4398,0.4408,0.4412,0.4408,0.4406,0.442,0.4418,0.4419,0.4419,0.4419,0.4419,0,0.4049,0.4068,0.4106,0.4138,0.4147,0.417,0.4197,0.4219,0.4235,0.4268,0.4277,0.4303,0.4336,0.4357,0.44,0.441,0.4451,0.4454,0.4441,0.4442,0.446,0.4459,0.4515,0.4523,0.4484,0.4485,0.4485,0,0.4071,0.4094,0.4127,0.4145,0.4161,0.4189,0.4208,0.4226,0.4246,0.428,0.4298,0.4332,0.4359,0.4412,0.4436,0.4469,0.4473,0.449,0.4478,0.4473,0.4474,0.4473,0.4475,0.4493,0.4493,0.4493,0.4493,0,0.4109,0.4116,0.4143,0.4173,0.4195,0.422,0.4245,0.4259,0.4281,0.4303,0.4336,0.4358,0.44,0.4434,0.4469,0.4487,0.4495,0.4497,0.4503,0.4499,0.4491,0.4496,0.4447,0.4496,0.4495,0.4495,0.4495,0.4495,0.4133,0.4153,0.418,0.4209,0.4229,0.4252,0.4274,0.4293,0.432,0.4355,0.4364,0.4399,0.4428,0.4475,0.4494,0.4523,0.4521,0.453,0.4532,0.4534,0.4535,0.4485,0.4529,0.4529,0.4529,0.4529,0.4529,0,0.4171,0.4188,0.4215,0.4249,0.4272,0.4275,0.4302,0.4322,0.4352,0.4378,0.4404,0.4443,0.4475,0.4501,0.4535,0.4553,0.4557,0.4561,0.456,0.4564,0.4534,0.4526,0.4557,0.4557,0.4557,0.4557,0.4557,0.4557,0.4193,0.4228,0.4239,0.4284,0.4301,0.4334,0.435,0.4371,0.4392,0.4434,0.446,0.4476,0.4502,0.4537,0.4568,0.4574,0.4587,0.459,0.4598,0.457,0.4567,0.4564,0.4556,0.4593,0.4593,0.4626,0.4626,0.4626]}]]